QPF
0.01 0.01 0.01 0.02 0.02 0.02 0.05 0.06 0.05 0.03 0.03 0.03 0.03 0.04 0.03 0.02 0.01 0.02 0.03 0.03 0.02 0.03 0.05 0.07 0.08 0.13 0.08 0.06 0.04 0.04 0.03 0.02 0.02 0.02 0.03 0.03 0.02 0.01 0.01 0.01 0.01 0.01 0.01
0.01 0.01 0.02 0.03 0.02 0.03 0.04 0.05 0.04 0.03 0.03 0.04 0.05 0.04 0.03 0.03 0.02 0.02 0.02 0.03 0.03 0.04 0.07 0.14 0.15 0.12 0.07 0.05 0.04 0.04 0.03 0.03 0.02 0.02 0.03 0.02 0.01 0.02 0.01 0.00 0.01 0.01 0.01
0.02 0.02 0.02 0.03 0.03 0.04 0.06 0.05 0.04 0.03 0.03 0.04 0.06 0.05 0.05 0.03 0.03 0.03 0.02 0.03 0.05 0.05 0.07 0.08 0.09 0.08 0.07 0.06 0.05 0.04 0.03 0.02 0.02 0.02 0.02 0.02 0.01 0.02 0.01 0.00 0.00 0.01 0.01
0.03 0.03 0.03 0.04 0.05 0.05 0.05 0.06 0.06 0.05 0.07 0.07 0.07 0.06 0.05 0.05 0.03 0.04 0.03 0.03 0.06 0.05 0.05 0.05 0.05 0.04 0.04 0.03 0.04 0.05 0.04 0.02 0.02 0.01 0.02 0.02 0.01 0.01 0.01 0.00 0.00 0.00 0.00
0.02 0.03 0.03 0.05 0.05 0.06 0.06 0.06 0.07 0.08 0.08 0.07 0.05 0.06 0.04 0.05 0.05 0.04 0.04 0.03 0.04 0.05 0.05 0.03 0.03 0.04 0.03 0.04 0.03 0.04 0.04 0.03 0.02 0.02 0.02 0.01 0.01 0.00 0.00 0.00 0.00 0.00 0.00
0.03 0.03 0.03 0.04 0.03 0.06 0.09 0.08 0.08 0.08 0.06 0.06 0.02 0.03 0.05 0.04 0.03 0.03 0.02 0.02 0.03 0.03 0.03 0.03 0.04 0.03 0.03 0.04 0.04 0.05 0.06 0.05 0.03 0.03 0.03 0.02 0.01 0.01 0.01 0.00 0.00 0.00 0.00
0.05 0.05 0.03 0.05 0.04 0.06 0.10 0.08 0.07 0.07 0.05 0.04 0.05 0.05 0.04 0.03 0.03 0.03 0.02 0.01 0.01 0.02 0.03 0.04 0.04 0.03 0.02 0.02 0.02 0.04 0.07 0.07 0.06 0.04 0.04 0.03 0.02 0.02 0.01 0.01 0.01 0.01 0.00
0.05 0.05 0.05 0.05 0.04 0.06 0.10 0.09 0.08 0.08 0.06 0.04 0.06 0.08 0.07 0.07 0.05 0.02 0.03 0.03 0.02 0.03 0.03 0.03 0.05 0.05 0.03 0.03 0.03 0.03 0.04 0.07 0.07 0.05 0.04 0.03 0.03 0.03 0.02 0.02 0.02 0.01 0.01
0.04 0.05 0.06 0.05 0.04 0.03 0.06 0.07 0.06 0.06 0.08 0.05 0.04 0.08 0.10 0.10 0.09 0.04 0.03 0.02 0.03 0.04 0.02 0.03 0.03 0.03 0.04 0.05 0.06 0.04 0.02 0.02 0.04 0.05 0.06 0.05 0.04 0.02 0.02 0.01 0.02 0.01 0.01
0.03 0.04 0.07 0.06 0.05 0.04 0.06 0.05 0.03 0.04 0.07 0.07 0.06 0.04 0.06 0.09 0.12 0.07 0.04 0.02 0.03 0.03 0.02 0.03 0.03 0.03 0.03 0.04 0.06 0.03 0.01 0.00 0.01 0.03 0.05 0.05 0.04 0.02 0.02 0.02 0.02 0.02 0.01
0.03 0.03 0.04 0.05 0.05 0.05 0.06 0.06 0.06 0.06 0.05 0.07 0.07 0.05 0.05 0.06 0.09 0.09 0.07 0.06 0.05 0.03 0.02 0.03 0.04 0.02 0.02 0.04 0.05 0.02 0.01 0.01 0.00 0.00 0.02 0.03 0.04 0.03 0.03 0.02 0.02 0.01 0.01
0.03 0.03 0.03 0.05 0.05 0.04 0.06 0.06 0.07 0.07 0.06 0.06 0.06 0.05 0.07 0.08 0.08 0.09 0.07 0.07 0.07 0.05 0.03 0.03 0.03 0.03 0.03 0.03 0.02 0.01 0.01 0.01 0.00 0.01 0.01 0.01 0.02 0.02 0.02 0.02 0.03 0.03 0.03
0.03 0.03 0.03 0.04 0.05 0.05 0.06 0.07 0.06 0.06 0.07 0.07 0.06 0.05 0.06 0.06 0.06 0.06 0.07 0.07 0.05 0.03 0.02 0.01 0.01 0.02 0.02 0.02 0.03 0.01 0.01 0.01 0.00 0.01 0.01 0.01 0.01 0.01 0.01 0.01 0.02 0.03 0.03
0.04 0.04 0.04 0.04 0.04 0.05 0.05 0.06 0.05 0.06 0.07 0.07 0.05 0.06 0.05 0.04 0.03 0.04 0.07 0.08 0.07 0.05 0.04 0.03 0.01 0.02 0.02 0.02 0.03 0.01 0.02 0.01 0.00 0.00 0.00 0.00 0.00 0.01 0.01 0.01 0.01 0.01 0.01
0.04 0.04 0.03 0.04 0.06 0.06 0.07 0.06 0.06 0.06 0.06 0.06 0.06 0.06 0.05 0.05 0.05 0.04 0.05 0.08 0.08 0.06 0.05 0.04 0.03 0.01 0.01 0.02 0.01 0.01 0.03 0.02 0.01 0.01 0.00 0.00 0.00 0.00 0.00 0.00 0.01 0.01 0.01
0.04 0.04 0.04 0.05 0.06 0.07 0.07 0.08 0.07 0.06 0.07 0.08 0.08 0.08 0.08 0.07 0.06 0.05 0.05 0.07 0.07 0.07 0.06 0.04 0.02 0.01 0.01 0.01 0.01 0.01 0.02 0.02 0.00 0.00 0.00 0.00 0.00 0.01 0.01 0.01 0.01 0.01 0.01
0.06 0.05 0.06 0.07 0.07 0.08 0.08 0.08 0.07 0.07 0.07 0.08 0.08 0.09 0.08 0.08 0.07 0.05 0.05 0.06 0.07 0.07 0.06 0.03 0.02 0.01 0.02 0.02 0.01 0.02 0.02 0.03 0.02 0.01 0.01 0.01 0.01 0.02 0.02 0.02 0.01 0.01 0.01
0.05 0.05 0.07 0.07 0.06 0.07 0.07 0.07 0.06 0.05 0.06 0.07 0.07 0.08 0.08 0.08 0.07 0.05 0.05 0.05 0.07 0.08 0.06 0.05 0.04 0.03 0.04 0.03 0.03 0.03 0.03 0.03 0.03 0.02 0.02 0.01 0.01 0.01 0.01 0.01 0.01 0.01 0.01
0.04 0.04 0.07 0.06 0.05 0.05 0.04 0.04 0.04 0.05 0.06 0.05 0.06 0.06 0.08 0.08 0.08 0.08 0.08 0.08 0.09 0.08 0.07 0.06 0.04 0.04 0.03 0.03 0.04 0.04 0.03 0.03 0.02 0.02 0.02 0.02 0.02 0.02 0.01 0.01 0.01 0.01 0.00
0.03 0.05 0.07 0.06 0.05 0.05 0.05 0.05 0.05 0.05 0.06 0.06 0.06 0.06 0.07 0.06 0.07 0.08 0.09 0.08 0.08 0.08 0.08 0.06 0.05 0.04 0.05 0.04 0.05 0.05 0.05 0.06 0.05 0.03 0.03 0.03 0.03 0.02 0.01 0.01 0.00 0.01 0.01
0.03 0.03 0.05 0.05 0.05 0.06 0.05 0.05 0.06 0.06 0.07 0.07 0.05 0.04 0.04 0.05 0.05 0.07 0.07 0.09 0.10 0.08 0.08 0.06 0.05 0.05 0.06 0.07 0.05 0.05 0.05 0.06 0.05 0.03 0.03 0.02 0.02 0.02 0.02 0.01 0.01 0.00 0.01
0.03 0.04 0.04 0.05 0.05 0.05 0.05 0.06 0.07 0.07 0.06 0.07 0.05 0.05 0.05 0.05 0.06 0.06 0.06 0.07 0.08 0.09 0.09 0.08 0.07 0.06 0.06 0.06 0.06 0.06 0.07 0.07 0.06 0.05 0.05 0.04 0.03 0.03 0.02 0.01 0.01 0.01 0.00
0.03 0.04 0.06 0.07 0.08 0.07 0.06 0.04 0.04 0.06 0.06 0.06 0.06 0.06 0.05 0.05 0.06 0.05 0.06 0.06 0.07 0.08 0.09 0.10 0.09 0.07 0.05 0.06 0.07 0.07 0.08 0.08 0.07 0.06 0.07 0.05 0.04 0.03 0.03 0.03 0.03 0.02 0.01
0.04 0.04 0.05 0.07 0.10 0.12 0.09 0.06 0.05 0.04 0.05 0.06 0.07 0.07 0.08 0.09 0.09 0.08 0.06 0.07 0.07 0.07 0.07 0.07 0.07 0.07 0.05 0.05 0.07 0.07 0.09 0.09 0.07 0.05 0.05 0.04 0.03 0.03 0.02 0.02 0.03 0.02 0.01
0.04 0.04 0.05 0.05 0.07 0.10 0.11 0.09 0.06 0.06 0.09 0.11 0.11 0.10 0.10 0.10 0.09 0.07 0.07 0.08 0.08 0.06 0.06 0.07 0.07 0.08 0.07 0.06 0.06 0.06 0.07 0.07 0.05 0.04 0.05 0.04 0.02 0.02 0.02 0.02 0.02 0.02 0.02
0.07 0.08 0.08 0.08 0.07 0.08 0.07 0.05 0.06 0.07 0.09 0.09 0.08 0.06 0.05 0.05 0.05 0.05 0.07 0.06 0.05 0.06 0.06 0.07 0.09 0.09 0.07 0.07 0.06 0.05 0.05 0.06 0.05 0.04 0.04 0.04 0.04 0.04 0.03 0.02 0.03 0.03 0.03
MSLP
1016.07 1016.29 1016.46 1016.57 1016.66 1016.73 1016.80 1016.88 1016.97 1017.05 1017.12 1017.17 1017.21 1017.25 1017.33 1017.46 1017.69 1018.00 1018.40 1018.84 1019.28 1019.69 1020.02 1020.27 1020.43 1020.53 1020.60 1020.67 1020.78 1020.93 1021.12 1021.35 1021.59 1021.81 1022.02 1022.20 1022.36 1022.51 1022.66 1022.81 1022.96 1023.12 1023.25
1016.12 1016.33 1016.48 1016.58 1016.64 1016.69 1016.75 1016.82 1016.91 1017.00 1017.09 1017.16 1017.22 1017.27 1017.35 1017.47 1017.66 1017.93 1018.26 1018.65 1019.05 1019.44 1019.78 1020.06 1020.27 1020.43 1020.56 1020.69 1020.83 1020.99 1021.19 1021.40 1021.61 1021.82 1022.01 1022.19 1022.36 1022.52 1022.69 1022.86 1023.02 1023.18 1023.32
1016.10 1016.31 1016.46 1016.57 1016.63 1016.69 1016.75 1016.83 1016.93 1017.04 1017.15 1017.23 1017.30 1017.35 1017.41 1017.50 1017.63 1017.83 1018.09 1018.41 1018.76 1019.12 1019.46 1019.77 1020.03 1020.25 1020.45 1020.63 1020.81 1020.99 1021.18 1021.37 1021.56 1021.74 1021.92 1022.09 1022.27 1022.44 1022.63 1022.81 1023.00 1023.17 1023.33
1016.00 1016.22 1016.40 1016.53 1016.63 1016.72 1016.81 1016.92 1017.05 1017.17 1017.29 1017.38 1017.45 1017.49 1017.52 1017.55 1017.62 1017.74 1017.92 1018.16 1018.44 1018.76 1019.09 1019.41 1019.71 1019.98 1020.23 1020.45 1020.66 1020.85 1021.04 1021.21 1021.38 1021.54 1021.70 1021.86 1022.04 1022.23 1022.43 1022.65 1022.86 1023.06 1023.24
1015.81 1016.06 1016.27 1016.45 1016.61 1016.75 1016.90 1017.05 1017.20 1017.35 1017.47 1017.57 1017.62 1017.64 1017.63 1017.62 1017.62 1017.66 1017.75 1017.91 1018.12 1018.38 1018.68 1018.99 1019.29 1019.59 1019.86 1020.12 1020.34 1020.54 1020.72 1020.88 1021.03 1021.18 1021.33 1021.49 1021.67 1021.87 1022.10 1022.34 1022.58 1022.81 1023.03
1015.56 1015.83 1016.09 1016.33 1016.55 1016.76 1016.96 1017.15 1017.34 1017.50 1017.63 1017.72 1017.77 1017.77 1017.73 1017.67 1017.62 1017.59 1017.61 1017.69 1017.82 1018.01 1018.25 1018.51 1018.80 1019.08 1019.36 1019.61 1019.85 1020.05 1020.23 1020.39 1020.54 1020.68 1020.83 1020.99 1021.18 1021.41 1021.65 1021.92 1022.19 1022.46 1022.70
1015.28 1015.57 1015.86 1016.15 1016.44 1016.70 1016.96 1017.19 1017.40 1017.57 1017.71 1017.80 1017.84 1017.82 1017.77 1017.69 1017.61 1017.53 1017.49 1017.49 1017.54 1017.65 1017.81 1018.00 1018.23 1018.48 1018.73 1018.98 1019.21 1019.42 1019.61 1019.78 1019.94 1020.10 1020.26 1020.44 1020.65 1020.88 1021.15 1021.43 1021.73 1022.02 1022.29
1015.00 1015.29 1015.60 1015.93 1016.26 1016.57 1016.85 1017.11 1017.33 1017.51 1017.65 1017.74 1017.78 1017.78 1017.73 1017.66 1017.57 1017.47 1017.38 1017.32 1017.29 1017.31 1017.38 1017.48 1017.63 1017.82 1018.03 1018.25 1018.48 1018.70 1018.92 1019.12 1019.31 1019.50 1019.69 1019.90 1020.13 1020.38 1020.65 1020.95 1021.25 1021.54 1021.82
1014.72 1015.00 1015.31 1015.66 1016.00 1016.33 1016.63 1016.89 1017.12 1017.30 1017.44 1017.54 1017.60 1017.62 1017.61 1017.56 1017.48 1017.39 1017.28 1017.18 1017.08 1017.01 1016.98 1016.99 1017.05 1017.16 1017.31 1017.51 1017.74 1017.98 1018.23 1018.48 1018.73 1018.97 1019.20 1019.44 1019.69 1019.95 1020.22 1020.51 1020.80 1021.08 1021.35
1014.44 1014.69 1014.99 1015.32 1015.66 1015.99 1016.29 1016.55 1016.77 1016.95 1017.09 1017.21 1017.30 1017.36 1017.40 1017.40 1017.36 1017.29 1017.18 1017.05 1016.91 1016.76 1016.63 1016.55 1016.52 1016.55 1016.65 1016.82 1017.05 1017.31 1017.61 1017.92 1018.23 1018.52 1018.81 1019.08 1019.35 1019.61 1019.87 1020.13 1020.40 1020.65 1020.90
1014.12 1014.34 1014.62 1014.94 1015.26 1015.57 1015.86 1016.10 1016.32 1016.49 1016.65 1016.79 1016.92 1017.03 1017.13 1017.19 1017.21 1017.18 1017.09 1016.95 1016.76 1016.56 1016.35 1016.18 1016.07 1016.03 1016.09 1016.23 1016.45 1016.74 1017.08 1017.44 1017.81 1018.16 1018.49 1018.79 1019.07 1019.33 1019.57 1019.80 1020.03 1020.24 1020.45
1013.75 1013.95 1014.20 1014.49 1014.80 1015.10 1015.37 1015.61 1015.81 1015.99 1016.17 1016.33 1016.50 1016.67 1016.83 1016.96 1017.04 1017.05 1016.99 1016.85 1016.65 1016.40 1016.14 1015.90 1015.72 1015.63 1015.64 1015.75 1015.97 1016.27 1016.63 1017.03 1017.44 1017.83 1018.18 1018.51 1018.79 1019.03 1019.25 1019.45 1019.63 1019.81 1019.98
1013.28 1013.47 1013.72 1014.00 1014.30 1014.59 1014.86 1015.09 1015.31 1015.50 1015.69 1015.89 1016.09 1016.31 1016.52 1016.70 1016.84 1016.90 1016.87 1016.74 1016.54 1016.28 1015.99 1015.71 1015.48 1015.34 1015.30 1015.39 1015.58 1015.87 1016.23 1016.64 1017.05 1017.45 1017.81 1018.14 1018.41 1018.64 1018.84 1019.01 1019.17 1019.31 1019.44
1012.72 1012.93 1013.18 1013.47 1013.78 1014.08 1014.35 1014.60 1014.82 1015.03 1015.24 1015.47 1015.70 1015.95 1016.20 1016.43 1016.60 1016.70 1016.71 1016.61 1016.43 1016.17 1015.88 1015.58 1015.33 1015.15 1015.08 1015.12 1015.28 1015.53 1015.85 1016.22 1016.60 1016.98 1017.32 1017.63 1017.89 1018.11 1018.29 1018.45 1018.58 1018.71 1018.83
1012.08 1012.32 1012.61 1012.92 1013.25 1013.56 1013.86 1014.13 1014.37 1014.60 1014.83 1015.07 1015.32 1015.59 1015.86 1016.11 1016.31 1016.45 1016.49 1016.43 1016.29 1016.06 1015.79 1015.51 1015.26 1015.07 1014.96 1014.95 1015.04 1015.23 1015.48 1015.77 1016.09 1016.40 1016.70 1016.97 1017.21 1017.41 1017.59 1017.75 1017.89 1018.02 1018.14
1011.42 1011.69 1012.01 1012.36 1012.71 1013.06 1013.38 1013.68 1013.94 1014.19 1014.43 1014.67 1014.93 1015.20 1015.47 1015.73 1015.95 1016.11 1016.20 1016.19 1016.10 1015.94 1015.72 1015.49 1015.26 1015.07 1014.94 1014.88 1014.90 1014.99 1015.14 1015.33 1015.55 1015.78 1016.00 1016.22 1016.43 1016.62 1016.81 1016.98 1017.14 1017.30 1017.43
1010.77 1011.07 1011.42 1011.80 1012.18 1012.55 1012.90 1013.22 1013.50 1013.75 1013.99 1014.23 1014.48 1014.74 1015.00 1015.26 1015.50 1015.69 1015.83 1015.89 1015.88 1015.81 1015.68 1015.51 1015.34 1015.17 1015.03 1014.93 1014.88 1014.87 1014.91 1014.98 1015.08 1015.20 1015.34 1015.50 1015.67 1015.86 1016.05 1016.25 1016.44 1016.62 1016.78
1010.18 1010.50 1010.87 1011.26 1011.65 1012.04 1012.41 1012.73 1013.02 1013.28 1013.52 1013.75 1013.98 1014.22 1014.48 1014.74 1014.99 1015.22 1015.41 1015.56 1015.65 1015.68 1015.66 1015.60 1015.50 1015.38 1015.26 1015.13 1015.02 1014.92 1014.85 1014.79 1014.77 1014.79 1014.84 1014.94 1015.07 1015.25 1015.45 1015.67 1015.89 1016.10 1016.29
1009.71 1010.02 1010.38 1010.76 1011.16 1011.54 1011.91 1012.24 1012.53 1012.78 1013.02 1013.23 1013.45 1013.68 1013.93 1014.20 1014.47 1014.74 1015.01 1015.24 1015.44 1015.60 1015.70 1015.76 1015.76 1015.71 1015.62 1015.49 1015.34 1015.17 1015.00 1014.85 1014.72 1014.64 1014.61 1014.65 1014.74 1014.90 1015.10 1015.33 1015.57 1015.80 1016.00
1009.38 1009.66 1009.99 1010.35 1010.72 1011.09 1011.44 1011.76 1012.05 1012.30 1012.53 1012.75 1012.97 1013.19 1013.45 1013.72 1014.03 1014.35 1014.68 1015.01 1015.32 1015.60 1015.83 1016.00 1016.11 1016.14 1016.10 1015.99 1015.83 1015.62 1015.39 1015.16 1014.96 1014.80 1014.70 1014.68 1014.73 1014.86 1015.05 1015.28 1015.52 1015.74 1015.93
1009.23 1009.46 1009.74 1010.06 1010.40 1010.74 1011.07 1011.38 1011.67 1011.93 1012.16 1012.39 1012.61 1012.86 1013.12 1013.43 1013.76 1014.14 1014.53 1014.94 1015.34 1015.72 1016.06 1016.34 1016.54 1016.65 1016.67 1016.60 1016.45 1016.23 1015.97 1015.70 1015.44 1015.23 1015.08 1015.01 1015.02 1015.11 1015.27 1015.47 1015.68 1015.88 1016.03
1009.28 1009.46 1009.69 1009.96 1010.26 1010.57 1010.89 1011.19 1011.48 1011.75 1012.01 1012.25 1012.51 1012.78 1013.07 1013.40 1013.77 1014.18 1014.62 1015.08 1015.55 1016.00 1016.41 1016.76 1017.03 1017.21 1017.28 1017.25 1017.12 1016.91 1016.65 1016.36 1016.08 1015.84 1015.65 1015.54 1015.51 1015.56 1015.67 1015.81 1015.97 1016.12 1016.22
1009.56 1009.70 1009.88 1010.11 1010.38 1010.67 1010.97 1011.28 1011.58 1011.87 1012.16 1012.45 1012.74 1013.04 1013.37 1013.72 1014.11 1014.54 1015.00 1015.47 1015.95 1016.43 1016.86 1017.24 1017.55 1017.76 1017.86 1017.86 1017.76 1017.57 1017.32 1017.04 1016.76 1016.50 1016.29 1016.15 1016.08 1016.07 1016.12 1016.19 1016.28 1016.35 1016.38
1010.11 1010.22 1010.37 1010.57 1010.82 1011.10 1011.40 1011.72 1012.04 1012.37 1012.70 1013.02 1013.35 1013.69 1014.04 1014.41 1014.80 1015.22 1015.65 1016.10 1016.56 1017.00 1017.41 1017.76 1018.05 1018.25 1018.36 1018.36 1018.28 1018.11 1017.88 1017.62 1017.35 1017.09 1016.87 1016.70 1016.58 1016.52 1016.49 1016.49 1016.49 1016.47 1016.42
1010.95 1011.04 1011.19 1011.38 1011.62 1011.89 1012.20 1012.53 1012.88 1013.24 1013.60 1013.96 1014.32 1014.68 1015.04 1015.40 1015.78 1016.15 1016.54 1016.92 1017.30 1017.66 1018.00 1018.29 1018.51 1018.67 1018.74 1018.74 1018.65 1018.49 1018.28 1018.03 1017.77 1017.52 1017.29 1017.10 1016.94 1016.82 1016.72 1016.63 1016.54 1016.44 1016.31
1012.06 1012.16 1012.32 1012.51 1012.75 1013.03 1013.34 1013.68 1014.04 1014.42 1014.79 1015.17 1015.54 1015.91 1016.26 1016.60 1016.93 1017.25 1017.55 1017.85 1018.12 1018.38 1018.60 1018.79 1018.93 1019.01 1019.03 1018.98 1018.88 1018.71 1018.51 1018.27 1018.02 1017.78 1017.54 1017.32 1017.13 1016.95 1016.78 1016.62 1016.45 1016.26 1016.05
Thickness
5755 5753 5751 5750 5752 5750 5748 5747 5747 5746 5746 5746 5746 5745 5744 5743 5743 5741 5736 5731 5729 5727 5726 5724 5723 5721 5719 5717 5715 5713 5712 5710 5709 5708 5707 5705 5704 5703 5702 5701 5700 5699 5698
5753 5751 5750 5749 5750 5749 5748 5747 5747 5746 5747 5745 5745 5744 5744 5743 5741 5740 5738 5732 5729 5727 5726 5724 5722 5720 5718 5716 5715 5713 5711 5710 5709 5707 5706 5705 5704 5702 5701 5700 5699 5698 5697
5750 5750 5750 5749 5749 5747 5745 5745 5745 5746 5746 5745 5744 5744 5743 5742 5741 5739 5738 5736 5732 5729 5726 5724 5723 5721 5719 5717 5715 5713 5712 5710 5709 5707 5706 5705 5703 5702 5701 5700 5699 5698 5697
5749 5749 5750 5749 5747 5747 5746 5745 5746 5745 5744 5744 5743 5744 5743 5741 5741 5739 5738 5736 5734 5733 5728 5725 5723 5722 5720 5718 5716 5714 5712 5711 5709 5708 5706 5705 5704 5702 5701 5700 5699 5698 5697
5749 5749 5749 5748 5747 5747 5746 5747 5745 5744 5742 5742 5743 5743 5744 5743 5741 5741 5739 5737 5735 5733 5732 5727 5725 5723 5721 5719 5718 5716 5714 5712 5711 5709 5707 5706 5704 5703 5702 5700 5699 5698 5697
5748 5748 5749 5747 5747 5747 5745 5744 5742 5742 5742 5742 5745 5744 5744 5744 5743 5742 5740 5739 5737 5736 5735 5733 5728 5726 5723 5721 5719 5718 5716 5714 5712 5710 5709 5707 5705 5704 5702 5701 5700 5698 5697
5748 5747 5749 5747 5746 5747 5745 5744 5743 5741 5742 5742 5741 5740 5743 5745 5744 5742 5742 5742 5741 5739 5736 5734 5732 5731 5728 5724 5722 5720 5718 5716 5714 5712 5710 5709 5707 5705 5704 5702 5701 5699 5698
5748 5748 5747 5748 5747 5746 5744 5744 5742 5742 5742 5743 5740 5736 5734 5738 5741 5745 5743 5742 5742 5741 5739 5737 5734 5731 5731 5729 5726 5723 5720 5718 5716 5715 5713 5711 5709 5707 5706 5704 5702 5701 5699
5749 5748 5748 5748 5747 5747 5746 5744 5743 5741 5739 5742 5742 5738 5732 5729 5734 5742 5742 5743 5742 5741 5741 5740 5737 5735 5732 5731 5729 5725 5723 5721 5719 5717 5715 5713 5711 5709 5708 5706 5704 5703 5701
5750 5749 5748 5747 5747 5748 5747 5745 5746 5744 5741 5740 5742 5741 5740 5737 5731 5731 5739 5743 5742 5740 5742 5742 5740 5737 5735 5733 5730 5728 5725 5723 5721 5719 5717 5715 5713 5711 5710 5708 5706 5704 5703
5751 5751 5749 5749 5748 5748 5747 5746 5746 5744 5744 5743 5742 5741 5740 5738 5737 5731 5730 5736 5740 5743 5744 5742 5741 5739 5737 5735 5732 5731 5727 5724 5722 5720 5719 5717 5715 5713 5711 5709 5708 5706 5705
5754 5752 5751 5750 5749 5748 5748 5746 5745 5745 5744 5744 5743 5743 5740 5737 5736 5734 5732 5732 5734 5740 5743 5742 5742 5740 5738 5737 5735 5732 5728 5725 5723 5722 5720 5718 5716 5715 5713 5711 5709 5708 5706
5756 5754 5753 5751 5750 5749 5748 5747 5746 5746 5745 5743 5742 5743 5743 5741 5740 5737 5733 5732 5734 5738 5740 5742 5742 5741 5740 5738 5735 5731 5729 5726 5724 5722 5721 5719 5717 5715 5714 5712 5711 5709 5707
5759 5758 5754 5753 5751 5750 5749 5748 5748 5746 5745 5744 5744 5743 5742 5743 5742 5740 5736 5732 5729 5734 5736 5738 5742 5741 5739 5738 5735 5731 5730 5727 5725 5723 5721 5719 5717 5716 5714 5712 5711 5709 5708
5760 5758 5756 5754 5753 5751 5750 5748 5748 5746 5746 5745 5745 5743 5742 5743 5742 5741 5739 5736 5729 5725 5729 5735 5738 5740 5737 5736 5734 5731 5730 5727 5725 5723 5721 5719 5718 5716 5714 5712 5711 5709 5708
5759 5757 5755 5754 5753 5751 5749 5748 5747 5746 5744 5744 5743 5742 5740 5741 5741 5739 5738 5737 5734 5730 5727 5734 5736 5739 5736 5736 5732 5731 5730 5727 5725 5723 5721 5719 5717 5716 5714 5712 5710 5709 5707
5759 5757 5756 5754 5752 5751 5749 5747 5746 5745 5744 5743 5742 5741 5739 5739 5739 5738 5737 5735 5733 5731 5726 5731 5734 5735 5731 5730 5730 5729 5729 5727 5727 5723 5721 5719 5717 5715 5713 5711 5709 5708 5706
5759 5758 5756 5754 5752 5750 5748 5746 5745 5745 5743 5742 5741 5739 5738 5739 5736 5735 5734 5733 5732 5730 5726 5724 5728 5730 5728 5727 5727 5726 5728 5728 5727 5724 5721 5718 5716 5714 5712 5710 5708 5706 5704
5759 5758 5756 5753 5751 5750 5748 5746 5745 5744 5743 5741 5740 5738 5737 5736 5733 5734 5732 5731 5730 5730 5727 5724 5725 5726 5726 5726 5724 5723 5725 5723 5724 5723 5720 5717 5714 5712 5710 5708 5706 5704 5702
5759 5757 5755 5753 5751 5749 5747 5745 5744 5743 5741 5740 5739 5738 5737 5735 5733 5731 5730 5729 5728 5726 5724 5722 5722 5723 5722 5722 5719 5719 5720 5721 5721 5722 5719 5716 5713 5710 5708 5706 5703 5702 5699
5759 5756 5753 5751 5749 5747 5745 5743 5742 5741 5739 5738 5737 5736 5735 5733 5731 5729 5729 5727 5725 5722 5721 5720 5718 5717 5717 5715 5715 5717 5716 5716 5717 5717 5715 5714 5712 5710 5706 5703 5700 5698 5696
5757 5754 5751 5749 5746 5745 5741 5739 5738 5738 5736 5735 5733 5732 5731 5729 5727 5724 5721 5720 5718 5718 5717 5715 5715 5712 5710 5711 5710 5710 5710 5708 5707 5711 5708 5707 5707 5705 5703 5700 5697 5695 5692
5754 5750 5748 5746 5743 5739 5735 5733 5732 5733 5732 5730 5729 5727 5728 5727 5723 5722 5718 5714 5712 5711 5709 5709 5708 5707 5706 5706 5704 5703 5702 5700 5699 5702 5699 5697 5699 5698 5696 5694 5692 5689 5686
5749 5746 5743 5741 5737 5733 5730 5728 5726 5727 5726 5724 5723 5722 5720 5718 5717 5715 5713 5711 5709 5707 5706 5704 5702 5701 5700 5699 5698 5697 5695 5694 5694 5694 5692 5688 5690 5689 5689 5687 5683 5681 5677
5744 5740 5738 5735 5731 5727 5724 5722 5720 5721 5720 5718 5717 5715 5713 5711 5708 5706 5705 5704 5702 5700 5698 5696 5694 5693 5691 5690 5690 5690 5689 5686 5685 5687 5685 5681 5681 5679 5679 5678 5674 5670 5667
5739 5736 5732 5729 5727 5723 5718 5716 5715 5716 5714 5712 5709 5707 5703 5702 5699 5698 5698 5697 5694 5693 5692 5691 5688 5686 5685 5683 5681 5680 5681 5679 5678 5676 5676 5673 5671 5669 5668 5669 5665 5662 5658